[[{"header":{"parameterUnit":"m.s-1","parameterCategory":1,"la1":30.2991,"la2":30.254,"lo1":-89.0895,"lo2":-89.0444,"dy":0.0017,"dx":0.0017,"nx":28,"ny":28,"refTime":"2024-09-01T09:00:00:Z","depth":0,"parameterNumber":2,"parameterNumberName":"U-component_of_WINDS"},"data":[0,0,0,0,0,0,0,0,0,0,0,0,0,0,0,0,0,0,0,0,0,0,0,0,0,0,0,0,0,0,0,0,0,0,0,0,0,0,0,0,0,0,0,0,0,0,0,0,0,0,0,0,0,0,0,0,0,0,-2.5701,-2.5701,0,-2.5687,-2.5687,-2.5686,-2.5557,-2.5554,-2.555,-2.5547,-2.5536,-2.5538,-2.5541,0,0,0,0,0,0,0,0,0,0,0,0,0,-2.562,-2.5622,-2.5701,-2.5701,-2.5701,-2.5687,-2.5687,-2.5686,-2.5557,-2.5553,-2.5549,-2.5546,-2.5535,-2.5538,-2.5541,0,0,0,0,0,0,0,0,0,0,0,0,0,-2.5635,-2.5623,-2.5701,-2.5635,-2.5629,-2.5687,-2.5687,-2.5686,-2.5558,-2.5553,-2.5548,-2.5544,-2.5534,-2.5538,-2.5542,-2.5663,0,0,-2.5554,-2.5556,0,0,0,0,0,0,0,0,-2.5635,-2.5638,-2.5645,-2.564,-2.5633,-2.5618,-2.5653,-2.5679,-2.5559,-2.5585,-2.5547,-2.5542,-2.5567,-2.5568,-2.5576,-2.5663,-2.5662,-2.5554,-2.5557,-2.5558,-2.556,0,0,0,0,0,0,0,-2.5634,-2.5638,-2.5696,-2.5645,-2.5638,-2.5606,-2.5603,-2.5658,-2.5604,-2.5582,-2.5573,-2.5573,-2.5563,-2.5573,-2.5575,-2.5662,-2.5554,-2.5558,-2.556,-2.5562,-2.5848,-2.5853,0,0,0,0,0,0,-2.5641,-2.5638,-2.5696,-2.5695,-2.5622,-2.5612,-2.5608,-2.5628,-2.5603,-2.5594,-2.5577,-2.5567,-2.5568,-2.557,-2.5574,-2.5716,-2.5558,-2.5562,-2.5565,-2.5843,-2.5849,-2.5855,0,0,0,0,0,0,-2.564,-2.5648,-2.5697,-2.5664,-2.5668,-2.5618,-2.5642,-2.563,-2.564,-2.5598,-2.5588,-2.5597,-2.5564,-2.5568,-2.5642,-2.5713,-2.5564,-2.5568,-2.5837,-2.5845,-2.5852,-2.6,0,0,0,0,0,0,-2.5638,-2.5648,-2.5694,-2.5666,-2.567,-2.5765,-2.5646,-2.5634,-2.5647,-2.5633,-2.5614,-2.5607,-2.5561,-2.5637,-2.5646,-2.5716,-2.5571,-2.583,-2.584,-2.585,-2.5989,-2.6012,-2.6032,0,0,0,0,0,-2.5636,-2.5737,-2.5697,-2.5704,-2.5726,-2.5769,-2.5771,-2.5716,-2.5653,-2.5699,-2.5672,-2.5607,-2.5704,-2.5645,-2.5655,-2.5727,-2.5826,-2.5838,-2.5849,-2.5979,-2.6007,-2.6031,0,0,0,0,0,0,-2.5775,-2.5732,-2.5687,-2.5782,-2.578,-2.5747,-2.5803,-2.5748,-2.5765,-2.5752,-2.5683,-2.568,-2.5764,-2.5753,-2.5688,-2.5844,-2.5753,-2.5768,-2.5849,-2.5876,-2.5897,-2.5899,-2.5574,0,0,0,0,0,-2.5817,-2.5855,-2.5815,-2.5902,-2.5903,-2.5854,-2.587,-2.5828,-2.5824,-2.5823,-2.5801,-2.5801,-2.583,-2.5852,-2.5877,-2.5985,-2.598,-2.604,-2.6061,-2.6079,-2.6093,-2.615,-2.6177,-2.5893,-2.5893,-2.5893,0,0,-2.5904,-2.5884,-2.5913,-2.593,-2.5923,-2.5965,-2.5854,-2.5903,-2.5933,-2.583,-2.5898,-2.5883,-2.5877,-2.5969,-2.6008,-2.5962,-2.617,-2.6094,-2.6109,-2.6113,-2.6165,-2.6192,-2.6216,-2.5901,-2.59,-2.5898,0,0,-2.6083,-2.6072,-2.6143,-2.6139,-2.613,-2.6096,-2.6113,-2.6089,-2.6074,-2.6141,-2.6064,-2.61,-2.6153,-2.6152,-2.6159,-2.6337,-2.6279,-2.6347,-2.6461,-2.6517,-2.654,-2.6559,-2.6624,-2.6648,-2.636,-2.6361,-2.6361,0,-2.6192,-2.6251,-2.6187,-2.6241,-2.6251,-2.6158,-2.623,-2.6229,-2.623,-2.624,-2.6187,-2.6251,-2.6241,-2.6332,-2.6375,-2.6383,-2.6402,-2.635,-2.6541,-2.656,-2.6578,-2.6639,-2.6663,-2.6369,-2.6368,-2.6367,-2.6367,0,-2.6386,-2.6428,-2.6487,-2.6489,-2.6505,-2.6569,-2.6515,-2.6539,-2.6495,-2.6467,-2.6536,-2.652,-2.6541,-2.6559,-2.6516,-2.6644,-2.6615,-2.6553,-2.6461,-2.6614,-2.6671,-2.6693,-2.6382,-2.6378,-2.6376,-2.6374,0,0,-2.6656,-2.662,-2.6643,-2.6643,-2.6625,-2.6657,-2.6716,-2.6735,-2.6757,-2.676,-2.6809,-2.6855,-2.6797,-2.6805,-2.6761,-2.6811,-2.6954,-2.6742,-2.6741,-2.6784,-2.7095,-2.7143,-2.7171,-2.6914,-2.6918,-2.6921,-2.7096,0,-2.683,-2.6927,-2.6871,-2.6977,-2.7016,-2.6927,-2.6978,-2.6974,-2.6949,-2.6978,-2.695,-2.6985,-2.6905,-2.6909,-2.6954,-2.6927,-2.7016,-2.6914,-2.696,-2.6963,-2.6966,-2.72,-2.7251,-2.7417,-2.7117,-2.7121,-2.7123,0,-2.7046,-2.7057,-2.7167,-2.7142,-2.7156,-2.7203,-2.7216,-2.7245,-2.7238,-2.7216,-2.7224,-2.7168,-2.7225,-2.7132,-2.721,-2.7142,-2.7157,-2.7147,-2.7152,-2.7156,-2.7054,-2.7212,-2.7468,-2.7494,-2.7157,-2.7154,-2.7152,0,-2.7234,-2.7276,-2.7347,-2.7349,-2.7322,-2.7357,-2.7347,-2.7335,-2.735,-2.7361,-2.737,-2.7388,-2.7399,-2.7415,-2.7365,-2.7302,-2.745,-2.7353,-2.7435,-2.7437,-2.7472,-2.7471,-2.7736,-2.7479,-2.7479,-2.7478,-2.7478,0,-2.7435,-2.7506,-2.7431,-2.7475,-2.7552,-2.7487,-2.7565,-2.7546,-2.7536,-2.7575,-2.7499,-2.7538,-2.7469,-2.7502,-2.7463,-2.7534,-2.7539,-2.7524,-2.7514,-2.7532,-2.7535,-2.7543,-2.7531,-2.7485,-2.7483,-2.7482,-2.7481,0,-2.7659,-2.7611,-2.7683,-2.765,-2.7643,-2.7702,-2.7674,-2.7714,-2.7682,-2.7733,-2.7742,-2.7693,-2.7727,-2.7679,-2.7708,-2.7682,-2.778,-2.7751,-2.7783,-2.7775,-2.786,-2.7854,-2.8142,-2.8177,-2.7896,-2.7899,-2.7901,0,-2.7791,-2.7844,-2.7816,-2.7836,-2.7831,-2.7864,-2.7879,-2.7816,-2.7834,-2.7829,-2.787,-2.7897,-2.7916,-2.7974,-2.7943,-2.7965,-2.7937,-2.8036,-2.794,-2.7957,-2.794,-2.7939,-2.7944,-2.8057,-2.806,-2.8063,-2.8065,0,-2.8033,-2.8006,-2.8029,-2.8044,-2.8063,-2.8072,-2.8076,-2.8097,-2.803,-2.8055,-2.8088,-2.8102,-2.8131,-2.816,-2.8173,-2.8163,-2.8105,-2.8095,-2.8115,-2.8136,-2.8153,-2.8147,-2.7838,-2.8089,-2.8087,-2.8085,-2.8084,-2.8083,-2.8216,-2.8258,-2.8245,-2.8274,-2.8269,-2.8274,-2.831,-2.8282,-2.8308,-2.8326,-2.8287,-2.833,-2.8321,-2.8333,-2.833,-2.8363,-2.832,-2.835,-2.8357,-2.8366,-2.838,-2.8146,-2.8365,-2.8364,-2.8364,-2.8363,-2.8363,0,-2.8455,-2.8441,-2.8468,-2.8474,-2.8497,-2.8436,-2.8437,-2.846,-2.8498,-2.8494,-2.8514,-2.8552,-2.8579,-2.8548,-2.857,-2.8602,-2.8576,-2.8611,-2.8609,-2.8608,-2.8417,-2.8398,-2.8632,-2.8632,-2.8632,-2.8631,-2.8631,-2.8631,-2.8582,-2.8651,-2.8623,-2.8689,-2.8675,-2.8715,-2.8721,-2.8725,-2.8722,-2.8767,-2.8789,-2.8768,-2.8754,-2.8773,-2.8796,-2.8786,-2.8799,-2.8843,-2.8825,-2.8647,-2.8621,-2.8596,-2.8578,-2.8846,-2.8846,-2.9013,-2.9014,-2.9016]},{"header":{"parameterUnit":"m.s-1","parameterCategory":1,"la1":30.2991,"la2":30.254,"lo1":-89.0895,"lo2":-89.0444,"dy":0.0017,"dx":0.0017,"nx":28,"ny":28,"refTime":"2024-09-01T09:00:00:Z","depth":0,"parameterNumber":3,"parameterNumberName":"V-component_of_WINDS"},"data":[0,0,0,0,0,0,0,0,0,0,0,0,0,0,0,0,0,0,0,0,0,0,0,0,0,0,0,0,0,0,0,0,0,0,0,0,0,0,0,0,0,0,0,0,0,0,0,0,0,0,0,0,0,0,0,0,0,0,-2.8692,-2.8691,0,-2.866,-2.866,-2.8659,-2.8597,-2.8595,-2.8594,-2.8593,-2.856,-2.8561,-2.8561,0,0,0,0,0,0,0,0,0,0,0,0,0,-2.8697,-2.8697,-2.8692,-2.8691,-2.8691,-2.866,-2.8659,-2.8659,-2.8597,-2.8595,-2.8594,-2.8593,-2.856,-2.8561,-2.8561,0,0,0,0,0,0,0,0,0,0,0,0,0,-2.8683,-2.8697,-2.8692,-2.8656,-2.8653,-2.866,-2.8659,-2.8659,-2.8597,-2.8595,-2.8594,-2.8592,-2.856,-2.8561,-2.8561,-2.8601,0,0,-2.8562,-2.8563,0,0,0,0,0,0,0,0,-2.8684,-2.8683,-2.8662,-2.8659,-2.8655,-2.863,-2.8649,-2.8639,-2.8598,-2.8618,-2.8593,-2.8591,-2.8585,-2.8583,-2.8582,-2.8599,-2.8598,-2.8562,-2.8563,-2.8563,-2.8563,0,0,0,0,0,0,0,-2.8685,-2.8684,-2.8679,-2.8661,-2.8657,-2.8641,-2.8637,-2.8647,-2.8612,-2.8616,-2.8612,-2.8609,-2.8583,-2.8581,-2.858,-2.8597,-2.8562,-2.8563,-2.8563,-2.8563,-2.8642,-2.8644,0,0,0,0,0,0,-2.8691,-2.8685,-2.868,-2.8678,-2.8665,-2.8643,-2.8638,-2.864,-2.8612,-2.8606,-2.861,-2.8606,-2.8582,-2.858,-2.8579,-2.8621,-2.8563,-2.8563,-2.8563,-2.8641,-2.8643,-2.8645,0,0,0,0,0,0,-2.8691,-2.8691,-2.8681,-2.868,-2.8678,-2.8644,-2.8647,-2.864,-2.8639,-2.8608,-2.8601,-2.8615,-2.858,-2.8578,-2.8595,-2.8619,-2.8563,-2.8564,-2.8638,-2.8641,-2.8644,-2.8708,0,0,0,0,0,0,-2.8692,-2.8692,-2.8707,-2.8681,-2.8678,-2.8699,-2.8649,-2.8641,-2.864,-2.8633,-2.861,-2.8605,-2.8578,-2.8595,-2.8595,-2.8619,-2.8564,-2.8636,-2.864,-2.8643,-2.8703,-2.8712,-2.872,0,0,0,0,0,-2.8692,-2.8727,-2.8708,-2.8708,-2.8696,-2.87,-2.8698,-2.8667,-2.8642,-2.8656,-2.8636,-2.8606,-2.8617,-2.8597,-2.8597,-2.8621,-2.8634,-2.8639,-2.8643,-2.8699,-2.871,-2.872,0,0,0,0,0,0,-2.8757,-2.8723,-2.8702,-2.8729,-2.8718,-2.869,-2.8707,-2.868,-2.8676,-2.8671,-2.8632,-2.8628,-2.8649,-2.8637,-2.8615,-2.8656,-2.8621,-2.8625,-2.8664,-2.8674,-2.8682,-2.8684,-2.8564,0,0,0,0,0,-2.8774,-2.878,-2.875,-2.8777,-2.8773,-2.8741,-2.8742,-2.8718,-2.8705,-2.87,-2.8681,-2.867,-2.867,-2.8672,-2.8671,-2.8701,-2.8694,-2.8718,-2.8726,-2.8733,-2.8737,-2.875,-2.8759,-2.8659,-2.8659,-2.8659,0,0,-2.881,-2.8792,-2.8799,-2.8789,-2.8778,-2.8785,-2.8737,-2.8747,-2.8751,-2.8702,-2.8716,-2.8702,-2.8686,-2.8709,-2.8718,-2.87,-2.8763,-2.8738,-2.8744,-2.8744,-2.8755,-2.8765,-2.8773,-2.8661,-2.8661,-2.866,0,0,-2.8878,-2.8867,-2.8886,-2.8876,-2.8859,-2.8837,-2.8842,-2.8818,-2.8806,-2.882,-2.8782,-2.8786,-2.8789,-2.8778,-2.8773,-2.8836,-2.8807,-2.8837,-2.888,-2.8893,-2.8901,-2.8908,-2.8928,-2.8936,-2.8841,-2.8841,-2.8841,0,-2.8925,-2.8934,-2.89,-2.8911,-2.8907,-2.8863,-2.8882,-2.8873,-2.8857,-2.8855,-2.8834,-2.8835,-2.8821,-2.884,-2.8855,-2.8853,-2.8856,-2.8839,-2.8903,-2.8909,-2.8915,-2.8934,-2.8942,-2.8845,-2.8844,-2.8844,-2.8843,0,-2.8991,-2.8997,-2.9015,-2.9,-2.8999,-2.9014,-2.8981,-2.8984,-2.896,-2.8941,-2.8954,-2.8936,-2.8929,-2.8932,-2.891,-2.8947,-2.8936,-2.891,-2.8872,-2.8929,-2.8945,-2.8953,-2.885,-2.8848,-2.8847,-2.8846,0,0,-2.91,-2.9064,-2.9071,-2.9063,-2.904,-2.9044,-2.9057,-2.905,-2.9052,-2.9042,-2.905,-2.9052,-2.9027,-2.9021,-2.8997,-2.9009,-2.9057,-2.8981,-2.898,-2.8994,-2.9094,-2.9113,-2.9122,-2.9038,-2.9039,-2.904,-2.9095,0,-2.9162,-2.9181,-2.915,-2.9176,-2.918,-2.9137,-2.9147,-2.9134,-2.9116,-2.9116,-2.9096,-2.9097,-2.9065,-2.9061,-2.9071,-2.9049,-2.9076,-2.9045,-2.9044,-2.9044,-2.9047,-2.9131,-2.9152,-2.9204,-2.9101,-2.9103,-2.9103,0,-2.9237,-2.923,-2.9256,-2.923,-2.923,-2.924,-2.923,-2.9232,-2.9215,-2.9201,-2.9194,-2.9165,-2.9174,-2.9139,-2.915,-2.9129,-2.9127,-2.9116,-2.9117,-2.9115,-2.9076,-2.9129,-2.922,-2.9227,-2.9114,-2.9113,-2.9112,0,-2.9311,-2.9308,-2.9322,-2.9317,-2.9287,-2.9295,-2.9283,-2.9264,-2.9262,-2.9253,-2.925,-2.9243,-2.9239,-2.9233,-2.9203,-2.9181,-2.9216,-2.9179,-2.9203,-2.9204,-2.9212,-2.9212,-2.9302,-2.9214,-2.9213,-2.9213,-2.9213,0,-2.9382,-2.94,-2.9355,-2.9364,-2.9381,-2.9345,-2.9363,-2.9347,-2.933,-2.9334,-2.9297,-2.9302,-2.9262,-2.9262,-2.9238,-2.9249,-2.9248,-2.9235,-2.9228,-2.9238,-2.9239,-2.9235,-2.923,-2.9215,-2.9215,-2.9214,-2.9214,0,-2.9468,-2.9439,-2.9451,-2.9422,-2.9415,-2.9429,-2.9403,-2.9409,-2.9388,-2.9393,-2.9392,-2.9359,-2.9357,-2.9326,-2.9317,-2.9301,-2.9321,-2.9308,-2.9326,-2.9321,-2.9346,-2.9343,-2.9436,-2.9445,-2.9353,-2.9353,-2.9354,0,-2.9515,-2.9527,-2.9498,-2.9498,-2.9487,-2.9488,-2.9484,-2.9449,-2.9447,-2.9428,-2.9436,-2.943,-2.9424,-2.9422,-2.9396,-2.9389,-2.9374,-2.9407,-2.9373,-2.9381,-2.9372,-2.9371,-2.9371,-2.9414,-2.9415,-2.9416,-2.9417,0,-2.96,-2.9585,-2.9581,-2.9572,-2.9569,-2.956,-2.9549,-2.9551,-2.9512,-2.9511,-2.9508,-2.9503,-2.9493,-2.9487,-2.9474,-2.9461,-2.9432,-2.9428,-2.9432,-2.9441,-2.945,-2.9443,-2.9344,-2.9426,-2.9425,-2.9424,-2.9424,-2.9423,-2.9666,-2.9674,-2.9654,-2.9651,-2.9639,-2.9629,-2.9632,-2.9611,-2.9608,-2.9597,-2.9576,-2.9575,-2.9556,-2.9537,-2.9525,-2.9524,-2.9507,-2.9514,-2.9516,-2.9518,-2.9522,-2.9452,-2.9522,-2.9521,-2.9521,-2.9521,-2.9521,0,-2.9748,-2.9733,-2.973,-2.9715,-2.9712,-2.9685,-2.9671,-2.967,-2.967,-2.9655,-2.9649,-2.9644,-2.9637,-2.9611,-2.9602,-2.9605,-2.9591,-2.9604,-2.9602,-2.9599,-2.9539,-2.9534,-2.9615,-2.9615,-2.9615,-2.9615,-2.9615,-2.9615,-2.979,-2.9801,-2.9783,-2.9787,-2.9771,-2.977,-2.9764,-2.9754,-2.9741,-2.9737,-2.9732,-2.9715,-2.9694,-2.9683,-2.9675,-2.9667,-2.9665,-2.9681,-2.9669,-2.9613,-2.9604,-2.9595,-2.9591,-2.9681,-2.9682,-2.9729,-2.9729,-2.973]}]]